{"data":{"norad_id":46396,"epoch":"2026-05-25T05:00:54.470592Z","epoch_age_seconds":56126,"freshness":"FRESH","line1":"1 46396U 20064A   26145.20896378  .00005418  00000+0  23024-3 0  9992","line2":"2 46396  97.5107 271.2029 0018133  25.5142 334.6986 15.23328006318031","mean_motion":15.23328006,"eccentricity":0.0018133,"inclination_deg":97.5107,"raan_deg":271.2029,"arg_perigee_deg":25.5142,"mean_anomaly_deg":334.6986,"bstar":0.00023024,"rev_number":31803,"period_min":94.529871067046,"perigee_km":483.34617237314,"apogee_km":508.27523110827,"semimajor_km":6873.9477017407,"source":"CELESTRAK","updated_at":"2026-05-25T13:37:56.320294Z"}}